| time (UTC) | temp F | wind direction | speed knots | gust knots | rain 1hr in | rain 24hr in | rain mn in | humidity % | barometer mb |
| 20260502151351 | 65 | 318 | 2.6 | 4.3 | 0.00 | 0.00 | 0.00 | 77 | |
| 20260502121341 | 51 | 122 | 0.9 | 1.7 | 0.00 | 0.00 | 0.00 | 99 | |
| 20260502114340 | 50 | 87 | 0.9 | 1.7 | 0.00 | 0.00 | 0.00 | 99 | |
| 20260502111336 | 50 | 83 | 0.9 | 1.7 | 0.00 | 0.00 | 0.00 | 99 | |
| 20260502104332 | 51 | 127 | 0.0 | 0.9 | 0.00 | 0.00 | 0.00 | 99 | |
| 20260502101327 | 51 | 2 | 2.6 | 2.6 | 0.00 | 0.00 | 0.00 | 99 | |
| 20260502091326 | 52 | 293 | 0.9 | 4.3 | 0.00 | 0.00 | 0.00 | 98 | |
| 20260502071320 | 55 | 205 | 0.9 | 4.3 | 0.00 | 0.00 | 0.00 | 96 | |
| 20260502064318 | 55 | 89 | 0.9 | 2.6 | 0.00 | 0.00 | 0.00 | 96 | |
| 20260502061315 | 55 | 354 | 2.6 | 4.3 | 0.00 | 0.00 | 0.00 | 96 | |
| 20260502054310 | 54 | 61 | 3.5 | 6.1 | 0.00 | 0.00 | 0.00 | 96 | |
| 20260502051308 | 55 | 286 | 1.7 | 6.1 | 0.00 | 0.00 | 0.00 | 97 | |
| 20260502044305 | 55 | 302 | 2.6 | 4.3 | 0.00 | 0.95 | 0.95 | 99 | |
| 20260502041302 | 55 | 348 | 1.7 | 5.2 | 0.00 | 0.95 | 0.95 | 99 | |
| 20260502034302 | 55 | 15 | 1.7 | 2.6 | 0.00 | 0.95 | 0.95 | 99 | |
| 20260502031258 | 56 | 338 | 2.6 | 5.2 | 0.00 | 0.95 | 0.95 | 99 | |
| 20260502024256 | 56 | 307 | 2.6 | 6.1 | 0.00 | 0.95 | 0.95 | 99 | |
| 20260502021251 | 56 | 77 | 2.6 | 4.3 | 0.00 | 0.95 | 0.95 | 99 | |
| 20260502014250 | 56 | 4 | 5.2 | 7.0 | 0.00 | 0.95 | 0.95 | 99 | |
| 20260502011247 | 56 | 347 | 3.5 | 6.1 | 0.00 | 0.95 | 0.95 | 99 | |
| 20260502004247 | 57 | 324 | 4.3 | 6.1 | 0.00 | 0.95 | 0.95 | 99 | |
| 20260502001242 | 58 | 33 | 1.7 | 7.8 | 0.00 | 0.95 | 0.95 | 99 | |
| 20260501234239 | 59 | 155 | 0.9 | 2.6 | 0.00 | 0.95 | 0.95 | 99 | |
| 20260501231234 | 59 | 278 | 1.7 | 1.7 | 0.00 | 0.95 | 0.95 | 99 | |
| 20260501224231 | 59 | 314 | 3.5 | 7.8 | 0.00 | 0.95 | 0.95 | 98 | |
| 20260501221228 | 60 | 338 | 2.6 | 6.1 | 0.00 | 0.95 | 0.95 | 99 | |
| 20260501214224 | 60 | 329 | 2.6 | 5.2 | 0.00 | 0.95 | 0.95 | 99 | |
| 20260501211221 | 60 | 21 | 0.9 | 4.3 | 0.00 | 0.95 | 0.95 | 99 | |
| 20260501204219 | 60 | 51 | 2.6 | 6.1 | 0.00 | 0.95 | 0.95 | 99 | |
| 20260501201217 | 61 | 339 | 4.3 | 7.0 | 0.00 | 0.95 | 0.95 | 99 | |
| 20260501194214 | 62 | 97 | 0.9 | 2.6 | 0.00 | 0.95 | 0.95 | 99 | |
| 20260501191210 | 62 | 138 | 0.9 | 1.7 | 0.00 | 0.95 | 0.95 | 99 | |
| 20260501184208 | 62 | 200 | 0.9 | 5.2 | 0.00 | 0.95 | 0.95 | 99 | |
| 20260501181207 | 62 | 346 | 3.5 | 7.8 | 0.00 | 0.95 | 0.95 | 99 | |
| 20260501174206 | 62 | 354 | 2.6 | 4.3 | 0.00 | 0.95 | 0.95 | 99 | |
| 20260501171202 | 62 | 326 | 3.5 | 5.2 | 0.00 | 0.95 | 0.95 | 99 | |
| 20260501164202 | 62 | 67 | 0.9 | 4.3 | 0.00 | 0.95 | 0.95 | 99 | |
| 20260501161200 | 61 | 331 | 6.1 | 8.7 | 0.00 | 0.95 | 0.95 | 99 | |
| 20260501154159 | 61 | 303 | 0.9 | 1.7 | 0.00 | 0.95 | 0.95 | 99 |